Погода в Швице

Швейцария     47°01′15″N   8°39′12″E
темп.,
°C
ветер,
м/с
пор.,
м/с
влажн.,
%
обл.,
%
осадки,
мм/ч
давл.,
гПа
погр.,
м
19 мая, ср
ср1923:00+2юз1298100 3.4 1020130
02:00+1ююз1299100 5.1 102092
05:00+1ю1194100 0.5 102020
08:00+2юз119593 1.0 1021202
11:00+5сз228576 1.3 1020711
14:00+5сз2386100 3.8 1019818
17:00+3ссз2299100 3.8 1020491
20:00+1ююз01100100 9.8 1022108
20 мая, чт
чт2023:00+1зюз12100100 1.9 1024190
02:00−1ю229636 2.5 102537
05:00−1ю2292100 0.1 102524
08:00+1зюз1199100 1.9 1025162
11:00+2сз119999 1.5 1026161
14:00+4зсз117856 2.2 1024730
17:00+7з117467 0.4 1023942
20:00+5ююв118686 0.5 102329
21 мая, пт
пт2123:00+2ююв3382100 0.0 102435
02:00+3ююв3376100 0.0 102138
05:00+2ююв4372100 0.0 102043
08:00+6ю2374100 0.0 1018106
11:00+9ююв3468100 0.0 1015593
14:00+13зюз2351100 0.0 10131712
17:00+11зсз126499 0.0 1012740
20:00+8вюв129049 0.1 1011124
22 мая, сб
сб2223:00+6зюз2397100 1.2 1014162
02:00+5ссз23100100 8.4 1012292
05:00+2ююв2398100 8.5 1014124
08:00+3зюз1292100 9.6 1014238
11:00+5ссз229397 0.5 1013616
14:00+6з128779 1.5 1013652
17:00+7з137844 1.8 1012856
20:00+5зюз128278 3.1 101466
23 мая, вс
вс2323:00+2ю2290100 0.4 101724
02:00+2ю2292100 0.9 101863
05:000ю229314 0.3 102023
08:00+3зюз118658 0.3 1021256
11:00+7сз236166 0.0 10201348
14:00+8сз226588 0.2 10201141
17:00+10сз2257100 0.1 10181275
20:00+7сз1175100 0.1 101919